OBJECT L, 44889

Orbit data source: Space-Track

You're viewing an Uncataloged Satellite

Recently launched and/or uncataloged satellites may have evolving metadata. Metadata may include but not limited to: Owner, Maufacturer, Bus, Motor, and Mission.

OBJECT L, 44889 is a satellite in SSO that was launched on Fri, 20 Dec 2019 UTC via a CHANG ZHENG 4B launch vehicle from the Taiyaun Space Center, China (TSC). Unknown objects in Earth's orbit typically refer to objects detected orbiting the Earth but have not yet been identified or cataloged. These objects could be anything from previously untracked satellites, spent rocket stages, debris from satellite collisions, or even natural meteoroids temporarily captured by Earth's gravity.

Loading next visibility...
Identifier
44889, 2019-093L
Orbit
SSO
Country
Flag of TBDTBD
Related business
None
Manufacturer
Unknown
Mission
Commercial Imaging
Bus & Motor
Unknown
Mass
Unknown
Launch date (UTC)
2019-12-20 (6 years ago)
Launch vehicle
CHANG ZHENG 4B
Launch site
Taiyaun Space Center, China (TSC)
Object type
Unknown
Shape & HBR
Box, Unknown HBR
Radar Cross Section
0.080 m², Medium (>0.1 m² and < 1m²)

Expand to show TLE details & history
Last TLE update: 7 hours ago

TLE from 7 hours ago
0 OBJECT L
1 44889U 19093L   26104.84311267  .00002229  00000-0  21326-3 0  9992
2 44889  97.7570 183.8653 0010292 260.4638  99.5419 14.94198561342348
Epoch: 2026-04-14T20:14Z
TLE epoch observation values (Epoch: 2026-04-14T20:14:04.934Z)
Latitude
-0.00005°
Longitude
37.3312°
Altitude
589.102 km
Speed
7.565 km/s
True Right ascension
12h 15m 27s
True Declination
0° 00' 00"
Sunlit
Object was in full shadow at epoch
Visualization orbit readout
Latitude
Unknown
Longitude
Unknown
Altitude
Unknown
Speed
Unknown
Apparent Right ascension
Unknown
Apparent Declination
Unknown
Sunlit
N/A
Visualization observer readout
Local Sidereal Time
09:59:20
Azimuth
Unknown
Elevation
Unknown
Doppler factor
Unknown
Orbital elements
Apogee altitude
589.04 km
Perigee altitude
574.714 km
Semi-major axis
6,960.014 km
Eccentricity
0.00103
Inclination
97.757°
RAAN
183.8653°
Arg. of periapsis
260.4638°
True anomaly
99.65818°
Mean anomaly
99.5419°
Eccentric anomaly
99.60004°
Mean motion
3.7379 °/min
Orbital period
96.31 mins
BSTAR
0.00021326
Loading maneuver chart data...
Computing Atmospheric mass density...
Loading historical data...
Loading historical data...
Loading historical data...
Loading historical data...
Loading historical data...
Loading historical data...
Loading historical data...

Documentation

Showing up to 5 results
|